Weather History for Three Rivers, MI

Change the Weather History Date:

Tuesday, September 10, 2013

  Actual Average Record
Temperature  
Mean Temperature 84 °F -  
Max Temperature 96 °F 78 °F 96 °F (1983)
Min Temperature 73 °F 53 °F 36 °F (1969)
Cooling Degree Days 20    
Growing Degree Days 34 (Base 50)    
Moisture  
Dew Point 66 °F    
Average Humidity 58    
Maximum Humidity 88    
Minimum Humidity 29    
Precipitation  
Precipitation 0.00 in - - ()
Sea Level Pressure  
Sea Level Pressure 30.00 in    
Wind  
Wind Speed 8 mph (SW)    
Max Wind Speed 16 mph    
Max Gust Speed 23 mph    
Visibility 9 miles    
Events      
Averages and records for this station are not official NWS values.
T = Trace of Precipitation, MM = Missing Value Source: NWS Daily Summary

Daily Weather History Graph

Daily Weather History Graph

Search for Another Location

Airport:

Trip Planner

Search our weather history database for the weather conditions in past years. The results will help you decide how hot, cold, wet, or windy it might be!

Date:

Astronomy

Sep. 10, 2013 Rise Set
Actual Time 7:17 AM EDT 8:00 PM EDT
Civil Twilight 6:49 AM EDT 8:28 PM EDT
Nautical Twilight 6:15 AM EDT 9:01 PM EDT
Astronomical Twilight 5:41 AM EDT 9:36 PM EDT
Moon 12:48 PM EDT (9/10) 10:56 PM EDT (9/10)
Length of Visible Light 13h 38m
Length of Day
12h 42m
Waxing Crescent, 28% of the Moon is Illuminated
Sep 10
Waxing Crescent
Sep 12
First Quarter
Sep 19
Full
Sep 26
Last Quarter
Oct 4
New

Hourly Weather History & Observations

Time (EDT) Temp. Heat Index Dew Point Humidity Pressure Visibility Wind Dir Wind Speed Gust Speed Precip Events Conditions
12:14 AM 81.3 °F 85.4 °F 71.1 °F 71% 29.91 in 10.0 mi SSW 11.5 mph - N/A   Clear
12:35 AM 81.0 °F 84.7 °F 70.9 °F 71% 29.91 in 10.0 mi SW 9.2 mph - N/A   Clear
12:54 AM 80.6 °F 84.2 °F 70.7 °F 72% 29.92 in 10.0 mi SW 8.1 mph - N/A   Clear
1:14 AM 80.2 °F 83.7 °F 70.7 °F 73% 29.92 in 10.0 mi SW 6.9 mph - N/A   Clear
1:34 AM 79.5 °F - 70.3 °F 73% 29.92 in 10.0 mi SW 6.9 mph - N/A   Clear
1:54 AM 78.1 °F - 70.3 °F 77% 29.92 in 10.0 mi SSW 6.9 mph - N/A   Clear
2:15 AM 77.7 °F - 70.7 °F 79% 29.93 in 10.0 mi SSW 6.9 mph - N/A   Clear
2:34 AM 77.4 °F - 70.7 °F 80% 29.93 in 10.0 mi SSW 5.8 mph - N/A   Clear
2:54 AM 77.0 °F - 70.7 °F 81% 29.94 in 10.0 mi SSW 6.9 mph - N/A   Clear
3:15 AM 75.6 °F - 70.2 °F 83% 29.94 in 10.0 mi SSW 5.8 mph - N/A   Clear
3:34 AM 75.4 °F - 70.0 °F 83% 29.95 in 7.0 mi SSW 4.6 mph - N/A   Clear
3:54 AM 75.2 °F - 69.8 °F 83% 29.95 in 10.0 mi SSW 5.8 mph - N/A   Clear
4:15 AM 74.3 °F - 69.4 °F 85% 29.95 in 7.0 mi SSW 3.5 mph - N/A   Clear
4:34 AM 74.3 °F - 69.3 °F 84% 29.96 in 10.0 mi SSW 3.5 mph - N/A   Clear
4:54 AM 73.8 °F - 68.9 °F 85% 29.96 in 7.0 mi South 5.8 mph - N/A   Clear
5:15 AM 74.3 °F - 69.6 °F 85% 29.97 in 7.0 mi SSW 5.8 mph - N/A   Clear
5:34 AM 74.5 °F - 69.8 °F 85% 29.97 in 7.0 mi SSW 5.8 mph - N/A   Clear
5:55 AM 74.5 °F - 69.8 °F 85% 29.97 in 7.0 mi SW 4.6 mph - N/A   Clear
6:14 AM 73.9 °F - 69.3 °F 85% 29.97 in 7.0 mi SSW 3.5 mph - N/A   Clear
6:34 AM 73.4 °F - 69.3 °F 87% 29.98 in 7.0 mi SSW 5.8 mph - N/A   Clear
6:55 AM 73.4 °F - 69.4 °F 87% 29.98 in 7.0 mi SSW 5.8 mph - N/A   Clear
7:14 AM 73.4 °F - 69.8 °F 88% 29.99 in 7.0 mi West 6.9 mph - N/A   Clear
7:34 AM 73.8 °F - 69.8 °F 87% 30.00 in 5.0 mi SW 5.8 mph - N/A   Clear
7:55 AM 74.3 °F - 70.0 °F 86% 30.00 in 5.0 mi SW 4.6 mph - N/A   Clear
8:14 AM 75.0 °F - 70.2 °F 85% 30.01 in 7.0 mi SW 5.8 mph - N/A   Clear
8:34 AM 76.3 °F - 70.2 °F 81% 30.01 in 7.0 mi SW 5.8 mph - N/A   Clear
8:55 AM 77.9 °F - 70.2 °F 77% 30.02 in 10.0 mi SW 6.9 mph - N/A   Clear
9:14 AM 79.0 °F - 69.8 °F 73% 30.02 in 10.0 mi SSW 6.9 mph - N/A   Clear
9:34 AM 80.6 °F 83.6 °F 69.3 °F 68% 30.02 in 10.0 mi WSW 6.9 mph - N/A   Clear
9:55 AM 82.4 °F 85.8 °F 68.9 °F 64% 30.03 in 10.0 mi SW 5.8 mph - N/A   Clear
10:14 AM 83.8 °F 87.3 °F 68.5 °F 60% 30.04 in 10.0 mi WSW 8.1 mph - N/A   Clear
10:35 AM 85.8 °F 89.1 °F 67.8 °F 55% 30.04 in 10.0 mi West 8.1 mph - N/A   Clear
10:54 AM 87.1 °F 89.5 °F 66.4 °F 50% 30.04 in 10.0 mi WSW 8.1 mph - N/A   Clear
11:14 AM 88.2 °F 90.6 °F 66.0 °F 48% 30.04 in 10.0 mi West 8.1 mph - N/A   Clear
11:34 AM 89.6 °F 91.5 °F 64.8 °F 44% 30.04 in 10.0 mi West 10.4 mph 16.1 mph N/A   Clear
11:54 AM 90.9 °F 92.3 °F 64.2 °F 41% 30.04 in 10.0 mi WSW 6.9 mph - N/A   Clear
12:15 PM 92.3 °F 93.4 °F 63.0 °F 38% 30.04 in 10.0 mi West 11.5 mph 17.3 mph N/A   Clear
12:34 PM 92.8 °F 93.5 °F 62.2 °F 36% 30.03 in 10.0 mi West 11.5 mph 17.3 mph N/A   Clear
12:54 PM 93.7 °F 94.1 °F 61.5 °F 34% 30.03 in 10.0 mi West 12.7 mph 20.7 mph N/A   Clear
1:15 PM 94.3 °F 94.9 °F 61.7 °F 34% 30.03 in 10.0 mi West 9.2 mph - N/A   Clear
1:34 PM 95.0 °F 95.2 °F 60.6 °F 32% 30.03 in 10.0 mi West 13.8 mph 21.9 mph N/A   Clear
1:54 PM 95.2 °F 95.1 °F 60.3 °F 31% 30.03 in 10.0 mi West 12.7 mph 19.6 mph N/A   Clear
2:15 PM 96.1 °F 96.9 °F 61.9 °F 32% 30.03 in 10.0 mi West 11.5 mph 16.1 mph N/A   Clear
2:34 PM 95.4 °F 95.3 °F 60.4 °F 31% 30.02 in 10.0 mi WSW 9.2 mph 19.6 mph N/A   Clear
2:54 PM 95.2 °F 94.7 °F 59.4 °F 30% 30.02 in 10.0 mi SW 11.5 mph 21.9 mph N/A   Clear
3:15 PM 95.5 °F 94.8 °F 58.8 °F 29% 30.02 in 10.0 mi WSW 15.0 mph 18.4 mph N/A   Clear
3:34 PM 95.4 °F 94.6 °F 58.8 °F 29% 30.02 in 10.0 mi WSW 15.0 mph 19.6 mph N/A   Clear
3:54 PM 95.9 °F 95.7 °F 60.1 °F 30% 30.01 in 10.0 mi West 13.8 mph 23.0 mph N/A   Clear
4:15 PM 95.4 °F 95.3 °F 60.4 °F 31% 30.01 in 10.0 mi West 16.1 mph 20.7 mph N/A   Clear
4:34 PM 95.5 °F 95.6 °F 60.8 °F 31% 30.01 in 10.0 mi West 15.0 mph 19.6 mph N/A   Clear
4:55 PM 95.2 °F 95.1 °F 60.3 °F 31% 30.01 in 10.0 mi West 10.4 mph 19.6 mph N/A   Clear
5:14 PM 95.0 °F 94.8 °F 59.9 °F 31% 30.00 in 10.0 mi West 13.8 mph 17.3 mph N/A   Clear
5:34 PM 94.6 °F 94.3 °F 59.4 °F 31% 30.00 in 10.0 mi West 8.1 mph 19.6 mph N/A   Clear
5:55 PM 94.6 °F 94.7 °F 60.4 °F 32% 30.00 in 10.0 mi West 6.9 mph - N/A   Clear
6:14 PM 94.1 °F 93.9 °F 59.7 °F 32% 30.00 in 10.0 mi West 6.9 mph - N/A   Clear
6:34 PM 93.2 °F 92.6 °F 59.5 °F 32% 30.00 in 10.0 mi WSW 9.2 mph 16.1 mph N/A   Clear
6:55 PM 92.3 °F 92.0 °F 60.4 °F 34% 30.01 in 10.0 mi West 6.9 mph - N/A   Clear
7:14 PM 91.2 °F 91.1 °F 61.0 °F 36% 30.01 in 10.0 mi West 5.8 mph - N/A   Clear
7:34 PM 90.0 °F 90.0 °F 61.2 °F 38% 30.02 in 10.0 mi West 3.5 mph - N/A   Clear
7:55 PM 89.1 °F 89.0 °F 61.2 °F 39% 30.02 in 10.0 mi Calm Calm - N/A   Clear
8:14 PM 86.4 °F 87.0 °F 62.6 °F 45% 30.02 in 10.0 mi SSW 3.5 mph - N/A   Clear
8:34 PM 84.9 °F 85.9 °F 63.0 °F 48% 30.03 in 10.0 mi South 3.5 mph - N/A   Clear
8:55 PM 83.8 °F 84.9 °F 63.3 °F 50% 30.04 in 10.0 mi Calm Calm - N/A   Clear
9:14 PM 82.9 °F 84.2 °F 63.5 °F 52% 30.04 in 10.0 mi Calm Calm - N/A   Clear
9:35 PM 79.5 °F - 64.6 °F 60% 30.04 in 10.0 mi Calm Calm - N/A   Clear
9:54 PM 79.0 °F - 64.6 °F 61% 30.04 in 10.0 mi Calm Calm - N/A   Clear
10:14 PM 76.1 °F - 66.2 °F 71% 30.04 in 10.0 mi Calm Calm - N/A   Clear
10:35 PM 76.3 °F - 65.3 °F 69% 30.04 in 10.0 mi Calm Calm - N/A   Clear
10:54 PM 75.7 °F - 65.5 °F 70% 30.04 in 10.0 mi SSW 3.5 mph - N/A   Clear
11:14 PM 76.6 °F - 65.1 °F 67% 30.04 in 10.0 mi SSW 4.6 mph - N/A   Clear
11:35 PM 76.8 °F - 65.1 °F 67% 30.04 in 10.0 mi SSW 6.9 mph - N/A   Clear
11:54 PM 77.9 °F - 65.3 °F 65% 30.04 in 10.0 mi SSW 6.9 mph - N/A   Clear